Regional Weather Roundup
Issued by NWS

Home | Current Version | Previous Version | Text Only | Print | Product List | Glossary Off
Versions: 1 2 3 4 5 6 7 8 9 10 11 12 13 14 15 16 17 18 19 20 21 22 23 24 25 26 27 28 29 30 31 32 33 34 35 36 37 38 39 40 41 42 43 44 45 46 47 48 49 50

000
ASUS43 KLMK 251402
RWRKY
KENTUCKY REGIONAL WEATHER ROUNDUP
NATIONAL WEATHER SERVICE LOUISVILLE KY
900 AM EST SAT FEB 25 2017

NOTE "FAIR" INDICATES FEW OR NO CLOUDS BELOW 12,000 FEET
WITH NO SIGNIFICANT WEATHER AND/OR OBSTRUCTIONS TO VISIBILITY.

KYZ001>023-026-027-061>063-070>075-251500-
WESTERN AND SOUTH CENTRAL KENTUCKY

CITY           SKY/WX    TMP DP  RH WIND       PRES   REMARKS
PADUCAH        CLOUDY    33  17  51 W12G21    30.03R WCI  24
HENDERSON      CLOUDY    32  19  59 W18       29.99R WCI  20
OWENSBORO      CLOUDY    33  20  58 NW23      29.98R WCI  21
HOPKINSVILLE   CLOUDY    35  20  55 NW16      30.00R WCI  25
BOWLING GREEN  MOSUNNY   38  22  52 NW14G20   29.96R WCI  30
GLASGOW        NOT AVBL
$$

KYZ024-025-028>034-038-045-046-053-251500-
NORTH CENTRAL KENTUCKY

CITY           SKY/WX    TMP DP  RH WIND       PRES   REMARKS
LOUISVILLE/SDF CLOUDY    35  19  52 W21G29    29.89R WCI  24
LOUISVILLE/LOU CLOUDY    36  22  56 W16G23    29.88R WCI  26
FORT KNOX      CLOUDY    33  22  64 W12G18    29.88R WCI  25
$$

KYZ035>037-039>044-047>052-055>060-089>105-251500-
NORTHEAST KENTUCKY

CITY           SKY/WX    TMP DP  RH WIND       PRES   REMARKS
LEXINGTON      CLOUDY    40  28  62 W18G28    29.81R WCI  31
COVINGTON      CLOUDY    36  25  64 W22G30    29.78R WCI  25
FRANKFORT      CLOUDY    38  25  59 W17G25    29.82R WCI  28
$$

KYZ054-064>069-076>088-106>120-251500-
SOUTHEAST KENTUCKY

CITY           SKY/WX    TMP DP  RH WIND       PRES   REMARKS
JACKSON        PTSUNNY   43  34  70 W10G18    29.77R
LONDON         PTSUNNY   43  35  73 W12G20    29.82R
SOMERSET       CLOUDY    41  30  65 W14G21    29.87R
MIDDLESBORO    CLOUDY    50  41  70 NW5       29.80R
MONTICELLO     CLOUDY    42  32  67 W18G26    29.88R
$$





USA.gov is the U.S. government's official web portal to all federal, state and local government web resources and services.